Find Starlink 31716

NORAD ID: 59377 Int'l Des: 2024-062 Owner: SPXS Country: US Constellation: starlink operational
LEOCIRCULAR

Current View

Loading 3D Globe...

About Starlink 31716

Starlink 31716 (NORAD 59377) is a starlink constellation satellite (v2 mini) launched Apr 2, 2024 by SPXS of US. It operates in LEO, CIRCULAR orbit with a mass of 730.00 kg.

About Starlink 31716

Description loading...

Upcoming Passes

Passes for default location (London). Set your location on the main map for personalized predictions.

Altitude History

Loading altitude history...

Two-Line Element Set

1 59377U 24062D 26166.12135862 .00000273 00000-0 21339-4 0 9998
2 59377 53.1607 114.4537 0001533 91.7099 268.4077 15.30191726125228
Epoch: Jun 15, 2026 • Age: 26 hours

Current Status

Altitude 491.2 km
Velocity 7.62 km/s
Sub-Earth Point -44.48°S, 78.39°E
Launch Date Apr 2, 2024
Age 2.2 years
Type internet

Technical Details

Classification Payload
Mass 730.00 kg
Dry Mass 700.00 kg
Total Mass 730.00 kg
Length 0.30 m
Diameter 4.10 m
Span 29.00 m
Shape Box + pan
Manufacturer SPXS
Bus Type Starlink V2M
Phase Status In Orbit
Owner/State SPXS/US

Most Searched